Location: Newark
(50.8547°N, 2.7256°E)
Time: 01:58:02
(UTC+00:00)

Envisat - Pass Details

Date: 30 January 2020
Orbit: 764 x 766 km, 98.1° (Epoch: 21 February)

Event Time Altitude Azimuth Distance (km) Brightness Sun altitude
Rises 06:23:40 0° 16° (NNE) 3,245 6.3 -10.4°
Reaches altitude 10° 06:26:01 10° 20° (NNE) 2,314 5.5 -10.1°
Maximum altitude 06:31:04 62° 101° (E) 862 3.6 -9.3°
Drops below altitude 10° 06:36:05 10° 182° (S) 2,296 5.7 -8.5°
Sets 06:38:24 0° 186° (S) 3,218 6.4 -8.2°
